Location: Unspecified
(0.0000°N, 0.0000°E)
Time: 17:41:37
(UTC+00:00)

Vanguard 2 Rocket - All Passes

Search period start: 22 December 2014 00:00
Search period end: 01 January 2015 00:00
Orbit: 554 x 3334 km, 32.9° (Epoch: 20 December)

Date Brightness Start Highest point End Pass type
(mag) Time Alt. Az. Time Alt. Az. Time Alt. Az.
22 Dec - 04:45:53 10° WSW 04:49:48 75° NW 04:54:48 10° NE visible
22 Dec - 07:01:43 10° NW 07:04:15 13° NNW 07:07:16 10° N daylight
22 Dec - 11:35:42 10° N 11:43:31 16° NNE 11:53:00 10° NE daylight
22 Dec - 13:48:15 10° NNW 14:04:19 41° NNE 14:22:27 10° E daylight
22 Dec - 16:03:43 10° NW 16:24:01 87° NE 16:41:46 10° SE daylight
22 Dec - 18:24:26 10° W 18:42:31 42° SW 18:55:41 10° SSE visible
22 Dec - 20:55:54 10° SW 21:00:46 12° SSW 21:04:56 10° S visible
23 Dec - 03:47:54 10° SW 03:51:43 46° SE 03:55:49 10° ENE visible
23 Dec - 06:02:04 10° WNW 06:05:07 17° NNW 06:08:56 10° NNE daylight
23 Dec - 10:39:46 10° N 10:42:03 11° NNE 10:44:30 10° NNE daylight
23 Dec - 12:49:29 10° NNW 13:02:49 30° NNE 13:19:11 10° E daylight
23 Dec - 15:03:32 10° NW 15:22:32 70° NE 15:41:35 10° ESE daylight
23 Dec - 17:21:49 10° WNW 17:41:37 56° SW 17:57:10 10° SE daylight
23 Dec - 19:48:34 10° WSW 20:00:06 20° SSW 20:08:54 10° SSE visible
24 Dec - 02:50:10 10° SSW 02:53:30 22° SSE 02:56:35 10° E visible
24 Dec - 05:02:59 10° W 05:06:26 28° NNW 05:10:40 10° NNE visible
24 Dec - 11:51:21 10° NNW 12:01:28 21° NNE 12:14:20 10° ENE daylight
24 Dec - 14:04:02 10° NW 14:21:04 55° NE 14:40:27 10° ESE daylight
24 Dec - 16:20:19 10° WNW 16:40:23 72° SW 16:58:03 10° SE daylight
24 Dec - 18:43:24 10° W 18:59:15 30° SW 19:11:16 10° SSE visible
25 Dec - 01:52:56 10° S 01:54:53 12° SSE 01:56:39 10° SE night (unlit)
25 Dec - 04:04:16 10° WSW 04:08:09 58° NW 04:12:22 10° NE visible
25 Dec - 10:54:14 10° N 11:00:19 14° NNE 11:07:39 10° NE daylight
25 Dec - 13:05:09 10° NNW 13:19:46 41° NE 13:38:10 10° E daylight
25 Dec - 15:19:45 10° NW 15:38:56 90° SW 15:58:15 10° SE daylight
25 Dec - 17:39:46 10° W 17:58:10 41° SW 18:12:56 10° SSE daylight
25 Dec - 20:10:13 10° SW 20:17:46 14° SSW 20:24:01 10° S visible
26 Dec - 03:05:48 10° SW 03:10:04 60° SE 03:13:57 10° ENE visible
26 Dec - 05:21:48 10° NW 05:23:20 12° NNW 05:24:59 10° N visible
26 Dec - 12:06:51 10° NNW 12:18:44 30° NE 12:34:31 10° E daylight
26 Dec - 14:19:59 10° NW 14:37:30 73° NE 14:57:39 10° ESE daylight
26 Dec - 16:37:31 10° WNW 16:56:49 54° SW 17:14:01 10° SE daylight
26 Dec - 19:03:35 10° WSW 19:16:33 22° SSW 19:26:49 10° SSE visible
27 Dec - 02:07:26 10° SSW 02:11:47 29° SSE 02:15:17 10° E night (unlit)
27 Dec - 04:21:41 10° W 04:24:43 21° NNW 04:27:56 10° NNE visible
27 Dec - 11:09:17 10° N 11:17:56 20° NNE 11:29:19 10° ENE daylight
27 Dec - 13:20:54 10° NW 13:36:17 56° NE 13:56:06 10° ESE daylight
27 Dec - 15:36:25 10° WNW 15:55:19 70° SW 16:14:28 10° SE daylight
27 Dec - 17:58:45 10° W 18:15:09 30° SSW 18:28:37 10° SSE visible
27 Dec - 20:33:01 10° SSW 20:36:04 11° SSW 20:38:51 10° S visible
28 Dec - 01:09:03 10° SSW 01:13:05 18° SSE 01:16:16 10° ESE night (unlit)
28 Dec - 03:22:22 10° WSW 03:26:30 45° NW 03:30:17 10° NE visible
28 Dec - 10:13:22 10° N 10:17:20 12° NNE 10:21:54 10° NE daylight
28 Dec - 12:22:25 10° NNW 12:35:25 42° NE 12:53:27 10° E daylight
28 Dec - 14:36:16 10° NW 14:53:50 86° SW 15:14:14 10° SE daylight
28 Dec - 16:55:31 10° W 17:13:35 40° SSW 17:29:47 10° SSE daylight
28 Dec - 19:24:52 10° SW 19:34:32 16° SSW 19:42:31 10° SSE visible
29 Dec - 00:10:33 10° S 00:13:56 14° SSE 00:16:43 10° SE visible
29 Dec - 02:23:18 10° SW 02:28:25 78° SE 02:32:19 10° ENE night (unlit)
29 Dec - 11:24:33 10° NNW 11:34:54 29° NE 11:49:32 10° E daylight
29 Dec - 13:36:53 10° NW 13:52:34 76° NE 14:13:13 10° ESE daylight
29 Dec - 15:53:41 10° WNW 16:11:55 52° SW 16:30:23 10° SE daylight
29 Dec - 18:18:52 10° WSW 18:32:46 22° SSW 18:44:22 10° SSE visible
29 Dec - 23:11:42 10° S 23:14:19 11° SSE 23:16:36 10° SSE visible
30 Dec - 01:24:16 10° SW 01:30:03 40° SSE 01:34:05 10° E night (unlit)
30 Dec - 03:40:08 10° WNW 03:42:55 17° NW 03:45:33 10° N night (unlit)
30 Dec - 10:27:30 10° N 10:34:40 18° NE 10:44:11 10° ENE daylight
30 Dec - 12:38:09 10° NW 12:51:43 58° NE 13:11:19 10° ESE daylight
30 Dec - 14:52:59 10° WNW 15:10:18 66° SW 15:30:22 10° SE daylight
30 Dec - 17:14:30 10° W 17:30:51 30° SSW 17:45:32 10° SSE daylight
30 Dec - 19:46:15 10° SW 19:53:05 13° SSW 19:58:56 10° S visible
30 Dec - 22:11:49 10° S 22:14:09 11° S 22:16:16 10° SSE visible
31 Dec - 00:25:04 10° SSW 00:31:15 26° SSE 00:35:30 10° E visible
31 Dec - 02:40:05 10° WSW 02:44:46 38° NW 02:48:28 10° NNE night (unlit)
31 Dec - 11:40:01 10° NNW 11:51:21 41° NE 12:08:24 10° ESE daylight
31 Dec - 13:53:13 10° WNW 14:08:54 83° SW 14:29:43 10° SE daylight
31 Dec - 16:11:44 10° W 16:28:55 39° SSW 16:46:09 10° SSE daylight
31 Dec - 18:39:49 10° SW 18:51:02 17° SSW 19:00:32 10° SSE visible
31 Dec - 21:09:48 10° SSW 21:13:22 11° S 21:16:31 10° SSE visible
31 Dec - 23:25:33 10° SSW 23:31:58 20° SSE 23:36:30 10° ESE visible
